Flag for Germany Weather past 2 weeks in Lörrach, Baden-Württemberg, Germany

Now
88 °F

Sunny.


Feels Like: 87 °F
Forecast: 61 / 77 °F
Wind: 3 mph from North

Location: Bale-Mulhouse

Current Time: Aug 3, 2015 at 3:11:30 PM

Latest Report: Aug 3, 2015 at 2:30 PM


Visibility: 10 mi

Pressure: 30.04 "Hg

Humidity: 35%

Dew point: 57 °F

Location of LörrachLocation

Historic Weather in Lörrach — Graph

°F

Lörrach temperature yesterday

Maximum temperature yesterday: 84 °F (at 5:30 PM)
Minimum temperature yesterday: 54 °F (at 5:30 AM)
Average temperature yesterday: 70 °F

Past Weeks' High & Low Weather Summary

 TemperatureHumidityPressure
High93 °F (Jul 21, 5:00 PM)100% (Jul 26, 5:00 AM)30.12 "Hg (Jul 26, 5:00 AM)
Low46 °F (Jul 26, 6:00 AM)26% (Jul 21, 7:30 PM)29.71 "Hg (Jul 24, 5:30 PM)
Average69 °F66%29.96 "Hg
* Reported Jul 19 2:00 PM — Aug 3 2:00 PM, Lörrach, Weather by CustomWeather, © 2015

Note: Actual official high and low records may vary slightly from our data, if they occured in-between our weather recording intervals... More about our weather records

Advertising

Lörrach weather history for previous 24 hours

 ConditionsComfort  
Time TempWeatherWind HumidityBarometerVisibility
2:00 PM
Mon, Aug 3
88 °FSunny.5 mph35%30.04 "Hg10 mi
1:30 PM86 °FSunny.6 mph38%30.04 "Hg10 mi
1:00 PM86 °FSunny.5 mph40%30.04 "Hg10 mi
12:30 PM84 °FSunny.2 mph45%30.07 "Hg10 mi
11:30 AM82 °FSunny.3 mph45%30.07 "Hg10 mi
11:00 AM81 °FPassing clouds.3 mph48%30.07 "HgN/A
10:30 AM77 °FPassing clouds.5 mph51%30.07 "HgN/A
10:00 AM75 °FSunny.7 mph54%30.07 "Hg10 mi
9:30 AM73 °FPassing clouds.6 mph61%30.07 "HgN/A
9:00 AM72 °FPassing clouds.6 mph61%30.07 "HgN/A
8:30 AM68 °FPassing clouds.6 mph69%30.07 "HgN/A
8:00 AM64 °FPassing clouds.6 mph78%30.07 "HgN/A
7:30 AM63 °FPassing clouds.5 mph83%30.07 "HgN/A
7:00 AM61 °FClear.6 mph88%30.04 "Hg10 mi
6:30 AM59 °FClear.6 mph88%30.04 "Hg10 mi
5:30 AM59 °FClear.6 mph88%30.04 "Hg10 mi
5:00 AM57 °FClear.3 mph94%30.04 "Hg10 mi
4:30 AM57 °FClear.3 mph94%30.04 "Hg10 mi
4:00 AM57 °FClear.3 mph94%30.04 "Hg10 mi
3:30 AM59 °FClear.3 mph88%30.04 "Hg10 mi
3:00 AM57 °FClear.3 mph94%30.04 "Hg10 mi
2:30 AM59 °FClear.2 mph88%30.04 "Hg10 mi
2:00 AM59 °FClear.No wind88%30.04 "Hg10 mi
1:30 AM61 °FClear.No wind88%30.04 "Hg10 mi
1:00 AM61 °FClear.3 mph88%30.04 "Hg10 mi
12:30 AM61 °FPassing clouds.5 mph88%30.04 "HgN/A
12:00 AM61 °FClear.2 mph88%30.04 "Hg10 mi
11:30 PM
Sun, Aug 2
64 °FClear.No wind78%30.04 "Hg10 mi
11:00 PM66 °FPassing clouds.3 mph78%30.04 "HgN/A
10:30 PM72 °FClear.3 mph61%30.04 "Hg10 mi
10:00 PM73 °FSunny.5 mph53%30.04 "Hg10 mi
9:30 PM77 °FSunny.8 mph47%30.04 "Hg10 mi
9:00 PM79 °FSunny.8 mph42%30.04 "Hg10 mi
8:30 PM81 °FSunny.10 mph39%30.01 "Hg10 mi
8:00 PM81 °FSunny.12 mph39%30.01 "Hg10 mi
7:30 PM82 °FSunny.12 mph35%30.01 "Hg10 mi
7:00 PM82 °FPassing clouds.10 mph35%30.01 "HgN/A
6:30 PM84 °FPassing clouds.7 mph37%30.01 "HgN/A
6:00 PM84 °FPassing clouds.5 mph35%30.04 "HgN/A
5:30 PM84 °FSunny.3 mph35%30.04 "Hg10 mi
5:00 PM82 °FSunny.5 mph40%30.04 "Hg10 mi
4:30 PM82 °FPassing clouds.5 mph40%30.04 "HgN/A
4:00 PM82 °FSunny.5 mph40%30.07 "Hg10 mi
3:30 PM81 °FScattered clouds.5 mph45%30.07 "HgN/A
3:00 PM81 °FScattered clouds.9 mph42%30.07 "HgN/A
Weather by CustomWeather, © 2015

See weather overviewHow to use our weather pages